TimeEST,TemperatureF,Dew PointF,Humidity,Sea Level PressureIn,VisibilityMPH,Wind Direction,Wind SpeedMPH,Gust SpeedMPH,PrecipitationIn,Events,Conditions,WindDirDegrees,DateUTC
12:11 AM,44.6,44.6,100,29.80,6.0,ESE,4.6,-,N/A,Rain,Light Rain,110,2012-12-29 05:11:00
12:17 AM,44.6,44.6,100,29.79,7.0,ESE,5.8,-,N/A,Rain,Light Rain,110,2012-12-29 05:17:00
12:30 AM,44.6,44.6,100,29.79,3.0,ESE,6.9,-,N/A,Rain,Heavy Rain,120,2012-12-29 05:30:00
12:31 AM,44.6,44.6,100,29.78,3.0,ESE,5.8,-,N/A,Rain,Heavy Rain,120,2012-12-29 05:31:00
12:36 AM,44.6,44.6,100,29.79,3.0,Calm,Calm,-,N/A,Rain,Heavy Rain,0,2012-12-29 05:36:00
12:51 AM,44.6,44.6,100,29.79,4.0,Calm,Calm,-,N/A,Rain,Rain,0,2012-12-29 05:51:00
12:54 AM,44.6,44.6,100,29.80,4.0,NW,6.9,-,N/A,Rain,Rain,320,2012-12-29 05:54:00
12:55 AM,44.8,44.2,98,29.81,3.0,NW,8.1,-,0.18,Rain,Rain,320,2012-12-29 05:55:00
12:57 AM,44.6,44.6,100,29.85,2.5,WNW,17.3,21.9,N/A,Rain,Heavy Rain,300,2012-12-29 05:57:00
1:01 AM,44.6,44.6,100,29.83,2.0,NW,9.2,21.9,N/A,Rain,Heavy Rain,310,2012-12-29 06:01:00
1:02 AM,44.6,44.6,100,29.83,1.8,NW,8.1,21.9,N/A,Rain,Heavy Rain,320,2012-12-29 06:02:00
1:06 AM,44.6,44.6,100,29.86,1.8,NW,17.3,21.9,N/A,Rain,Heavy Rain,310,2012-12-29 06:06:00
1:10 AM,44.6,44.6,100,29.86,2.0,NW,13.8,-,N/A,Rain,Heavy Rain,310,2012-12-29 06:10:00
1:12 AM,44.6,44.6,100,29.84,2.5,NNW,9.2,-,N/A,Rain,Heavy Rain,330,2012-12-29 06:12:00
1:13 AM,44.6,44.6,100,29.83,3.0,NNW,6.9,-,N/A,Rain,Heavy Rain,340,2012-12-29 06:13:00
1:20 AM,44.6,44.6,100,29.84,5.0,North,6.9,-,N/A,Rain,Rain,360,2012-12-29 06:20:00
1:24 AM,44.6,44.6,100,29.83,5.0,North,6.9,-,N/A,Rain,Rain,360,2012-12-29 06:24:00
1:30 AM,44.6,44.6,100,29.83,4.0,North,4.6,-,N/A,Rain,Rain,360,2012-12-29 06:30:00
1:33 AM,44.6,44.6,100,29.84,4.0,North,3.5,-,N/A,Rain,Light Rain,360,2012-12-29 06:33:00
1:43 AM,44.6,44.6,100,29.83,4.0,North,3.5,-,N/A,Rain,Light Rain,360,2012-12-29 06:43:00
1:53 AM,44.6,44.6,100,29.80,4.0,East,4.6,-,N/A,Rain,Light Rain,100,2012-12-29 06:53:00
1:54 AM,44.6,44.6,100,29.80,4.0,East,4.6,-,N/A,Rain,Light Rain,100,2012-12-29 06:54:00
1:55 AM,45.0,44.8,99,29.80,4.0,East,4.6,-,0.28,Rain,Light Rain,100,2012-12-29 06:55:00
2:09 AM,44.6,44.6,100,29.81,8.0,Calm,Calm,-,N/A,Rain,Light Rain,0,2012-12-29 07:09:00
2:12 AM,44.6,44.6,100,29.81,8.0,Calm,Calm,-,N/A,Rain,Light Rain,0,2012-12-29 07:12:00
2:31 AM,44.6,44.6,100,29.81,10.0,Calm,Calm,-,N/A,,Overcast,0,2012-12-29 07:31:00
2:34 AM,44.6,44.6,100,29.80,10.0,Calm,Calm,-,N/A,Rain,Light Rain,0,2012-12-29 07:34:00
2:35 AM,44.6,44.6,100,29.80,10.0,Calm,Calm,-,N/A,Rain,Light Rain,0,2012-12-29 07:35:00
2:43 AM,44.6,44.6,100,29.81,9.0,Calm,Calm,-,N/A,Rain,Light Rain,0,2012-12-29 07:43:00
2:49 AM,44.6,44.6,100,29.81,10.0,Calm,Calm,-,N/A,Rain,Light Rain,0,2012-12-29 07:49:00
2:52 AM,44.6,44.6,100,29.81,10.0,Calm,Calm,-,N/A,,Overcast,0,2012-12-29 07:52:00
2:53 AM,44.6,44.6,100,29.81,10.0,Calm,Calm,-,N/A,,Overcast,0,2012-12-29 07:53:00
2:55 AM,45.1,45.0,99,29.81,10.0,Calm,Calm,-,0.01,,Overcast,0,2012-12-29 07:55:00
3:25 AM,44.6,44.6,100,29.80,10.0,Calm,Calm,-,N/A,,Overcast,0,2012-12-29 08:25:00
3:45 AM,44.6,44.6,100,29.79,10.0,Calm,Calm,-,N/A,,Overcast,0,2012-12-29 08:45:00
3:55 AM,45.3,45.0,99,29.80,10.0,Calm,Calm,-,N/A,,Overcast,0,2012-12-29 08:55:00
4:34 AM,44.6,44.6,100,29.82,8.0,WNW,3.5,-,N/A,,Overcast,300,2012-12-29 09:34:00
4:55 AM,45.3,45.1,99,29.84,7.0,WNW,3.5,-,N/A,,Overcast,290,2012-12-29 09:55:00
5:00 AM,44.6,44.6,100,29.84,7.0,WNW,5.8,-,N/A,,Overcast,290,2012-12-29 10:00:00
5:50 AM,46.4,44.6,93,29.85,8.0,WNW,4.6,-,N/A,,Overcast,290,2012-12-29 10:50:00
5:55 AM,45.7,45.5,99,29.86,9.0,West,3.5,-,N/A,,Overcast,280,2012-12-29 10:55:00
6:00 AM,46.4,44.6,93,29.86,9.0,WNW,4.6,-,N/A,,Overcast,290,2012-12-29 11:00:00
6:04 AM,46.4,46.4,100,29.87,8.0,WNW,5.8,-,N/A,,Overcast,290,2012-12-29 11:04:00
6:19 AM,46.4,46.4,100,29.88,10.0,WNW,6.9,-,N/A,,Overcast,290,2012-12-29 11:19:00
6:26 AM,46.4,46.4,100,29.88,10.0,West,8.1,-,N/A,,Overcast,280,2012-12-29 11:26:00
6:47 AM,46.4,46.4,100,29.90,10.0,WNW,6.9,-,N/A,,Overcast,290,2012-12-29 11:47:00
6:48 AM,46.4,46.4,100,29.90,10.0,WNW,8.1,-,N/A,,Overcast,290,2012-12-29 11:48:00
6:50 AM,46.4,46.4,100,29.90,10.0,WNW,10.4,-,N/A,,Overcast,290,2012-12-29 11:50:00
6:52 AM,46.4,46.4,100,29.91,10.0,WNW,12.7,19.6,N/A,,Overcast,290,2012-12-29 11:52:00
6:55 AM,46.9,45.9,96,29.91,10.0,WNW,10.4,19.6,N/A,,Overcast,300,2012-12-29 11:55:00
6:58 AM,46.4,46.4,100,29.91,10.0,NW,16.1,19.6,N/A,,Overcast,310,2012-12-29 11:58:00
7:00 AM,46.4,46.4,100,29.91,10.0,NW,13.8,19.6,N/A,,Overcast,310,2012-12-29 12:00:00
7:18 AM,46.4,44.6,93,29.93,10.0,NW,11.5,-,N/A,,Overcast,310,2012-12-29 12:18:00
7:26 AM,46.4,44.6,93,29.93,10.0,NW,11.5,-,N/A,,Overcast,310,2012-12-29 12:26:00
7:55 AM,46.9,44.1,90,29.95,10.0,WNW,9.2,-,N/A,,Overcast,300,2012-12-29 12:55:00
8:08 AM,46.4,44.6,93,29.96,10.0,WNW,6.9,-,N/A,,Overcast,290,2012-12-29 13:08:00
8:17 AM,46.4,44.6,93,29.96,10.0,WNW,6.9,-,N/A,,Overcast,290,2012-12-29 13:17:00
8:36 AM,46.4,44.6,93,29.96,10.0,WNW,6.9,-,N/A,,Overcast,290,2012-12-29 13:36:00
8:55 AM,47.7,44.1,87,29.97,10.0,WNW,9.2,-,N/A,,Overcast,300,2012-12-29 13:55:00
9:25 AM,46.4,42.8,87,29.99,10.0,West,11.5,23.0,N/A,,Overcast,280,2012-12-29 14:25:00
9:55 AM,45.0,40.6,85,30.02,10.0,West,8.1,-,N/A,,Overcast,280,2012-12-29 14:55:00
10:42 AM,44.6,39.2,81,30.05,10.0,West,11.5,-,N/A,,Overcast,280,2012-12-29 15:42:00
10:51 AM,44.6,39.2,81,30.05,10.0,West,11.5,20.7,N/A,,Overcast,260,2012-12-29 15:51:00
10:52 AM,44.6,39.2,81,30.05,10.0,West,11.5,20.7,N/A,,Overcast,270,2012-12-29 15:52:00
10:54 AM,44.6,39.2,81,30.05,10.0,West,11.5,20.7,N/A,,Overcast,270,2012-12-29 15:54:00
10:55 AM,44.1,39.2,83,30.05,10.0,West,12.7,20.7,N/A,,Overcast,280,2012-12-29 15:55:00
11:09 AM,42.8,39.2,87,30.06,10.0,WNW,9.2,-,N/A,,Overcast,290,2012-12-29 16:09:00
11:22 AM,42.8,39.2,87,30.07,10.0,WNW,10.4,-,N/A,,Overcast,290,2012-12-29 16:22:00
11:55 AM,43.7,38.3,81,30.06,10.0,WNW,13.8,21.9,N/A,,Overcast,290,2012-12-29 16:55:00
12:39 PM,42.8,37.4,81,30.05,10.0,WNW,15.0,-,N/A,,Overcast,290,2012-12-29 17:39:00
12:55 PM,42.8,35.6,76,30.07,10.0,WNW,13.8,21.9,N/A,,Overcast,290,2012-12-29 17:55:00
1:55 PM,44.1,35.1,71,30.06,10.0,WNW,11.5,-,N/A,,Overcast,290,2012-12-29 18:55:00
2:28 PM,44.6,33.8,66,30.06,10.0,WNW,16.1,-,N/A,,Overcast,300,2012-12-29 19:28:00
2:55 PM,44.4,33.8,66,30.06,10.0,WNW,15.0,19.6,N/A,,Overcast,290,2012-12-29 19:55:00
3:55 PM,43.5,31.5,63,30.09,10.0,WNW,20.7,27.6,N/A,,Overcast,300,2012-12-29 20:55:00
4:55 PM,42.1,31.1,65,30.13,10.0,WNW,13.8,-,N/A,,Overcast,290,2012-12-29 21:55:00
5:46 PM,41.0,32.0,70,30.15,10.0,NW,13.8,-,N/A,,Overcast,310,2012-12-29 22:46:00
5:55 PM,41.2,32.2,70,30.15,10.0,WNW,15.0,-,N/A,,Overcast,300,2012-12-29 22:55:00
6:14 PM,41.0,32.0,70,30.17,10.0,WNW,11.5,26.5,N/A,,Overcast,290,2012-12-29 23:14:00
6:55 PM,40.1,30.6,69,30.19,10.0,NW,13.8,-,N/A,,Overcast,310,2012-12-29 23:55:00
7:55 PM,39.4,25.5,58,30.22,10.0,NW,24.2,29.9,N/A,,Overcast,320,2012-12-30 00:55:00
8:55 PM,39.0,25.7,59,30.24,10.0,NW,17.3,28.8,N/A,,Overcast,310,2012-12-30 01:55:00
9:55 PM,37.2,24.8,61,30.27,10.0,WNW,17.3,23.0,N/A,,Scattered Clouds,300,2012-12-30 02:55:00
10:55 PM,35.4,25.7,68,30.29,10.0,NW,13.8,-,N/A,,Clear,310,2012-12-30 03:55:00
11:55 PM,36.1,26.1,67,30.30,10.0,NW,11.5,-,N/A,,Mostly Cloudy,320,2012-12-30 04:55:00